User: anonymous   Login
Location: Bailleul
(50.3375°N, 2.8513°E)
Time: 11:10:45
(UTC+00:00)
Language:

BREEZE-M DEB (TANK) - Orbit

View from above orbital plane
View from above orbital plane
View from above satellite
View from above satellite

Ground track
Ground track

The orbit data is extracted from the following two-line orbital elements,

1 37871U 11064E   21265.09503197  .00003136  00000-0  76957-3 0  9998
2 37871  52.6224  43.7702 5795572 167.6239 217.3062  4.34008011155391
Epoch (UTC): 22 September 2021 02:16:50
Eccentricity: 0.5795572
inclination: 52.6224°
perigee height: 297 km
apogee height: 18698 km
right ascension of ascending node: 43.7702°
argument of perigee: 167.6239°
revolutions per day: 4.34008011
mean anomaly at epoch: 217.3062°
orbit number at epoch: 15539

The dashed part of the orbit path shows where the satellite is in the earth's shadow,  

DLR